Погода в Тортугеро

Коста-Рика     10°32′32″N   83°30′10″W
темп.,
°C
ветер,
м/с
пор.,
м/с
влажн.,
%
обл.,
%
осадки,
мм/ч
давл.,
гПа
погр.,
м
12 мая, ср
ср1200:00+25зюз0191100 3.2 101194
03:00+24ююз1193100 1.2 100950
06:00+24ю1295100 6.8 101191
09:00+26св1389100 1.9 1013226
12:00+25св2388100 3.8 1012310
15:00+27св238596 0.4 1010490
18:00+26всв2287100 0.4 1011228
21:00+25вюв1290100 0.9 1012256
13 мая, чт
чт1300:00+25з0190100 1.6 1011105
03:00+24з229484 0.6 101088
06:00+24зсз1294100 4.1 101172
09:00+26ссв238841 6.8 1013327
12:00+29св357064 11.1 1011889
15:00+26св3589100 2.3 1010393
18:00+25всв1290100 6.4 1011169
21:00+25юз1191100 0.9 101233
14 мая, пт
пт1400:00+24сз1191100 1.9 101175
03:00+24с1291100 3.5 101083
06:00+24ссв129189 9.3 1012147
09:00+27в2485100 3.9 1014567
12:00+29в346578 4.9 10121143
15:00+27всв2477100 0.4 1011702
18:00+25св2387100 1.0 1012141
21:00+25ссв128999 1.1 1014120
15 мая, сб
сб1500:00+24зсз1190100 2.6 101342
03:00+24зсз119176 1.0 101271
06:00+24св1290100 2.1 1013215
09:00+26вюв2487100 3.8 1014344
12:00+26в3483100 6.3 1013691
15:00+25вюв1288100 0.4 1011237
18:00+24юв1188100 0.4 101291
21:00+25ююв018887 0.0 1013117
16 мая, вс
вс1600:00+24з0189100 0.0 1012119
03:00+24зюз1191100 0.1 101269
06:00+24ююз118829 0.7 101359
09:00+27в23815 1.2 1014562
12:00+29всв346355 1.4 10131115
15:00+28всв346866 0.0 10111001
18:00+26вюв238066 0.1 1013284
21:00+25вюв227966 0.0 1014267